Rochester, NH

11:52 PM EDT on May 27, 2017 (GMT -0400)
Skyhaven

Weather History for KDAW - January, 2013

Change the Weather History Date:

Wednesday, January 2, 2013

  Actual Average (KPSM) Record (KPSM)
Temperature  
Mean Temperature 13 °F -  
Max Temperature 23 °F 34 °F 61 °F (1979)
Min Temperature 3 °F 20 °F -4 °F (1999)
Degree Days  
Heating Degree Days 52    
Moisture  
Dew Point -1 °F    
Average Humidity 54    
Maximum Humidity 70    
Minimum Humidity 40    
Precipitation  
Precipitation 0.00 in - - ()
Sea Level Pressure  
Sea Level Pressure 29.92 in    
Wind  
Wind Speed 7 mph (NW)    
Max Wind Speed 20 mph    
Max Gust Speed 28 mph    
Visibility 10 miles    
Events      
Averages and records for this station are not official NWS values.
T = Trace of Precipitation, MM = Missing Value Source: NWS Daily Summary

Daily Weather History Graph

Daily Weather History Graph

Search for Another Location

Airport or City:

Trip Planner

Search our weather history database for the weather conditions in past years. The results will help you decide how hot, cold, wet, or windy it might be!

Date:

Astronomy

Jan. 02, 2013 Rise Set
Actual Time 7:16 AM EST 4:19 PM EST
Civil Twilight 6:43 AM EST 4:52 PM EST
Nautical Twilight 6:07 AM EST 5:28 PM EST
Astronomical Twilight 5:33 AM EST 6:02 PM EST
Moon 9:59 PM EST (1/2) 9:47 AM EST (1/2)
Length of Visible Light 10h 08m
Length of Day
9h 03m
Waning Gibbous, 75% of the Moon is Illuminated
Jan 2
Waning Gibbous
Jan 4
Last Quarter
Jan 11
New
Jan 18
First Quarter
Jan 26
Full

Hourly Weather History & Observations

Time (EST) Temp. Windchill Dew Point Humidity Pressure Visibility Wind Dir Wind Speed Gust Speed Precip Events Conditions
12:51 AM 12.9 °F 1.6 °F -0.9 °F 54% 29.87 in 10.0 mi West 8.1 mph 16.1 mph N/A   Clear
1:51 AM 12.0 °F 1.5 °F -0.9 °F 56% 29.87 in 10.0 mi Variable 6.9 mph - N/A   Clear
3:51 AM 12.0 °F - -0.9 °F 56% 29.88 in 10.0 mi Calm Calm - N/A   Clear
4:51 AM 10.0 °F 1.8 °F -0.9 °F 61% 29.87 in 10.0 mi West 4.6 mph - N/A   Clear
5:51 AM 9.0 °F - -0.9 °F 64% 29.88 in 10.0 mi Calm Calm - N/A   Clear
6:51 AM 7.0 °F 0.1 °F -0.9 °F 70% 29.88 in 10.0 mi Variable 3.5 mph - N/A   Clear
7:51 AM 10.0 °F - 1.9 °F 70% 29.87 in 10.0 mi Calm Calm - N/A   Overcast
8:51 AM 12.9 °F 6.9 °F 3.0 °F 65% 29.86 in 10.0 mi Variable 3.5 mph - N/A   Overcast
9:51 AM 15.1 °F - 3.0 °F 59% 29.88 in 10.0 mi Calm Calm - N/A   Overcast
10:51 AM 19.9 °F 10.1 °F 6.1 °F 55% 29.88 in 10.0 mi NW 8.1 mph - N/A   Partly Cloudy
11:51 AM 23.0 °F 11.1 °F 7.0 °F 50% 29.86 in 10.0 mi WNW 12.7 mph 21.9 mph N/A   Mostly Cloudy
12:51 PM 23.0 °F 10.6 °F 6.1 °F 48% 29.85 in 10.0 mi WNW 13.8 mph 23.0 mph N/A   Overcast
1:51 PM 23.0 °F 10.6 °F 3.0 °F 42% 29.86 in 10.0 mi WNW 13.8 mph 26.5 mph N/A   Partly Cloudy
3:51 PM 19.9 °F 4.3 °F 1.0 °F 44% 29.93 in 10.0 mi NW 19.6 mph 26.5 mph N/A   Clear
4:51 PM 19.0 °F 7.5 °F -2.0 °F 40% 29.96 in 10.0 mi NW 10.4 mph 24.2 mph N/A   Clear
6:51 PM 12.9 °F -3.4 °F -5.1 °F 45% 30.01 in 10.0 mi NW 16.1 mph 27.6 mph N/A   Clear
7:51 PM 10.9 °F -5.4 °F -7.1 °F 44% 30.02 in 10.0 mi NNW 15.0 mph 23.0 mph N/A   Clear
8:51 PM 8.1 °F -5.3 °F -7.1 °F 50% 30.02 in 10.0 mi WNW 9.2 mph 19.6 mph N/A   Clear
9:51 PM 6.1 °F -4.3 °F -8.0 °F 53% 30.04 in 10.0 mi NW 5.8 mph - N/A   Clear
10:51 PM 3.9 °F -10.4 °F -9.0 °F 55% 30.04 in 10.0 mi NW 9.2 mph - N/A   Clear
11:51 PM 3.0 °F -10.5 °F -9.9 °F 55% 30.04 in 10.0 mi WNW 8.1 mph - N/A   Clear